Regional Weather Roundup
Issued by NWS Charleston, WV

Home | Current Version | Previous Version | Graphics & Text | Print | Product List | Glossary On
Versions: 1 2 3 4 5 6 7 8 9 10 11 12 13 14 15 16 17 18 19 20 21 22 23 24 25 26 27 28 29 30 31 32 33 34 35 36 37 38 39 40 41 42 43 44 45 46 47 48 49 50
000
ASUS41 KRLX 241610
RWRRLX
West Virginia Regional Weather Roundup
National Weather Service Charleston WV
1100 AM EST SAT JAN 24 2015

Note: "fair" indicates few or no clouds below 12,000 feet with no
significant weather and/or obstructions to visibility.

WVZ003-241700-
Northern Panhandle of West Virginia

CITY           SKY/WX    TMP DP  RH WIND       PRES   REMARKS
WHEELING       CLOUDY    26  21  81 W12       29.66S HAZE
$$

WVZ009-241700-
Northwest West Virginia

CITY           SKY/WX    TMP DP  RH WIND       PRES   REMARKS
PARKERSBURG    CLOUDY    29  25  85 W9        29.76R FOG
$$

WVZ006-241700-
Western West Virginia

CITY           SKY/WX    TMP DP  RH WIND       PRES   REMARKS
HUNTINGTON     MIX PCPN  28  26  92 W9        29.79R FOG
$$

WVZ015-241700-
West Central West Virginia

CITY           SKY/WX    TMP DP  RH WIND       PRES   REMARKS
CHARLESTON     FLURRIES  31  27  85 W7        29.75S
$$

WVZ022-031-241700-
North Central West Virginia

CITY           SKY/WX    TMP DP  RH WIND       PRES   REMARKS
CLARKSBURG     PTSUNNY   32  27  81 W10       29.66S
MORGANTOWN     PTSUNNY   31  25  78 W6        29.65S
$$

WVZ025-035-042-045-241700-
Southern West Virginia

CITY           SKY/WX    TMP DP  RH WIND       PRES   REMARKS
BECKLEY        CLOUDY    29  25  85 NW13      29.66R
LOGAN          CLOUDY    30  28  93 CALM      29.74R
BLUEFIELD      CLOUDY    30  25  81 NW13      29.65R
LEWISBURG      CLOUDY    33  30  87 W7        29.62R
$$

WVZ047-241700-
Northern Mountains of West Virginia

CITY           SKY/WX    TMP DP  RH WIND       PRES   REMARKS
ELKINS         CLOUDY    31  28  89 NW12      29.63S
$$

WVZ052-241700-
Eastern Panhandle of West Virginia

CITY           SKY/WX    TMP DP  RH WIND       PRES   REMARKS
MARTINSBURG    CLOUDY    37  32  82 CALM      29.57R
PETERSBURG     CLOUDY    35  34  97 CALM      29.60S FOG
$$



USA.gov is the U.S. government's official web portal to all federal, state and local government web resources and services.